GFSSE_925_thetae_132.txt.gz
Theta_e
335 335 333 336 336 335 336 335 334 334 335 335 335 334 334 333 332 331 331 329 332 331 331 330 331 331 328 326 328 328 327 326 326 325 325 326 325 326 324 325 324 325 326
335 335 335 337 338 338 334 335 335 334 335 335 334 334 333 333 332 330 330 329 331 331 330 329 331 330 328 327 325 326 326 324 324 323 324 325 325 325 325 325 325 325 325
335 335 335 337 337 336 333 334 334 334 335 335 333 332 332 331 331 329 329 329 329 330 329 329 329 330 328 326 324 324 323 323 323 324 323 324 325 325 325 325 325 326 326
335 335 335 336 335 334 333 333 333 334 335 334 332 331 330 329 329 329 328 328 329 330 328 329 328 328 328 326 325 325 324 322 323 323 324 324 325 326 327 326 326 325 325
335 333 334 334 334 334 334 334 333 332 333 333 332 331 329 329 328 327 328 328 328 328 328 328 328 327 326 325 325 323 322 322 323 324 324 324 325 327 327 326 325 324 324
332 332 333 334 334 335 334 333 334 331 330 331 333 331 329 329 328 327 327 327 327 327 327 328 328 327 326 323 322 321 322 321 323 323 324 325 326 326 327 326 326 326 326
332 330 332 334 334 334 331 331 331 330 328 330 331 331 329 328 327 326 327 326 327 327 327 328 328 326 323 321 321 321 322 323 323 325 325 327 327 327 327 327 328 327 327
329 326 331 333 333 332 331 331 330 330 328 327 329 329 329 328 327 326 326 326 326 327 327 326 323 323 321 320 319 320 321 323 323 324 325 326 328 328 329 327 327 326 325
326 324 327 332 332 330 329 328 328 329 327 325 327 327 325 324 326 325 325 325 325 325 323 322 321 321 321 320 320 319 319 319 320 322 323 325 326 327 328 325 326 325 322
326 327 327 328 329 328 327 327 329 328 326 325 324 326 324 323 325 325 325 322 319 319 320 320 320 321 321 321 321 320 320 320 319 322 325 326 327 327 325 324 324 321 319
328 329 328 328 328 327 327 326 327 326 326 325 324 324 324 323 320 321 320 318 317 317 319 320 321 321 321 321 321 321 321 320 320 323 325 324 325 325 322 323 320 318 315
331 330 329 327 327 327 326 326 325 324 325 325 325 324 323 320 317 318 318 318 317 317 319 320 321 321 321 321 321 321 321 320 320 321 322 321 323 322 322 320 317 314 313
328 329 331 328 326 326 326 325 324 323 322 324 324 323 321 319 316 316 317 318 317 317 319 320 321 321 321 321 321 321 321 320 320 319 319 320 320 319 320 317 314 313 312
328 329 332 330 326 325 325 324 324 324 322 323 323 323 321 319 317 315 316 317 318 319 320 320 320 321 321 321 321 321 321 320 320 318 317 318 318 320 318 315 313 312 312
328 328 330 331 327 325 325 324 324 325 323 321 319 319 319 319 316 314 315 317 317 318 319 320 319 320 321 321 321 321 321 321 319 318 316 316 318 318 316 313 313 312 311
329 328 327 330 329 326 325 325 325 324 323 320 319 320 322 321 317 315 315 315 316 318 319 320 320 320 321 321 321 321 322 321 320 319 316 312 316 316 314 312 311 311 310
330 330 328 328 329 328 326 325 325 324 324 321 320 322 323 323 323 316 316 316 316 319 319 320 321 322 322 322 321 322 321 321 319 317 316 313 313 315 312 310 310 309 309
331 330 330 328 327 328 327 325 324 323 323 321 319 322 323 323 323 321 320 320 320 320 320 321 321 322 322 322 321 322 322 320 318 315 314 313 312 312 310 304 305 307 307
332 331 331 330 328 327 327 327 325 324 322 320 320 321 322 324 324 321 320 321 321 321 322 322 322 323 322 322 322 321 321 320 318 315 314 311 310 310 306 299 298 298 304
331 332 331 331 330 329 328 328 327 325 323 321 322 324 324 325 325 324 322 322 322 321 322 323 323 322 322 322 321 321 321 319 317 315 314 312 309 309 309 303 298 296 295
330 331 331 331 331 329 328 328 327 326 323 322 321 322 323 324 325 325 323 323 323 322 322 324 324 323 322 322 321 318 317 315 316 314 313 312 309 307 304 302 299 297 294
330 330 330 331 331 330 328 328 327 326 325 324 324 324 324 323 323 324 324 323 323 323 323 324 324 323 322 322 321 318 316 312 315 314 312 310 308 307 304 302 301 298 295
328 329 329 330 331 332 331 328 326 325 325 325 325 325 325 324 324 323 323 322 323 324 324 324 324 324 322 322 322 321 317 317 309 308 308 308 308 306 304 303 301 299 295
327 328 329 329 329 329 330 328 327 326 325 325 325 326 324 324 324 323 323 323 323 324 324 324 324 324 324 322 322 321 320 318 309 306 304 305 304 305 304 303 302 299 294
327 327 327 328 328 329 329 329 327 326 326 326 327 326 326 326 324 324 323 323 323 324 324 325 324 323 324 324 322 321 320 319 316 310 314 301 300 303 304 303 301 300 296
327 327 326 327 329 328 329 329 328 328 327 327 327 327 327 326 326 326 325 324 323 323 324 324 325 324 324 324 323 323 321 319 316 312 306 302 303 307 306 303 301 300 297

GFSSE_925_thetae_138.txt.gz
Theta_e
337 339 336 336 336 337 337 339 339 340 339 337 338 336 335 334 330 330 331 329 331 332 330 328 329 329 327 327 326 326 327 327 326 327 327 328 328 327 325 324 325 326 329
338 338 336 336 336 337 337 336 336 337 337 338 337 336 334 332 332 332 330 329 331 333 330 327 327 327 326 326 327 326 326 326 325 325 325 326 326 327 328 327 328 329 328
338 338 339 335 335 335 333 334 334 334 335 334 333 332 332 332 331 331 330 329 331 333 330 328 326 326 326 327 326 326 326 324 324 324 325 328 328 328 326 327 329 328 328
338 338 340 336 334 334 335 334 334 334 333 332 331 330 331 330 330 330 329 328 331 330 328 327 327 328 327 326 326 326 324 323 324 325 325 327 328 327 327 327 328 326 329
339 339 339 336 333 334 334 334 334 333 332 331 330 330 329 329 329 329 328 328 330 329 327 327 327 326 327 326 325 323 323 323 325 326 326 329 329 329 329 328 329 328 327
339 338 337 335 333 333 333 333 334 332 330 330 330 329 329 328 328 328 328 328 328 328 327 327 327 327 326 325 322 322 324 325 327 325 326 329 330 329 329 329 327 326 325
338 337 337 334 333 333 333 333 333 332 331 329 328 328 327 327 327 328 327 327 327 327 327 327 327 326 324 322 322 323 324 324 325 326 328 329 330 330 330 328 326 325 324
336 336 337 334 334 334 334 334 332 330 332 329 328 327 327 327 326 328 327 327 327 327 326 326 325 321 320 319 319 319 319 321 324 326 328 329 329 329 328 325 323 321 320
334 335 336 336 335 333 332 333 331 329 332 330 328 326 326 326 325 326 327 327 327 327 327 326 321 320 319 319 319 319 318 320 325 328 328 329 327 328 326 324 321 319 317
333 333 334 335 334 334 333 331 331 329 329 328 326 324 325 325 324 325 326 326 326 325 325 322 320 320 320 320 320 320 319 322 325 326 326 327 326 326 323 321 318 317 315
332 331 332 333 333 334 333 331 330 329 327 327 326 324 323 325 325 325 325 325 325 323 320 320 320 320 320 320 320 320 321 323 323 324 324 323 324 324 321 318 316 315 314
331 330 330 331 331 331 330 329 330 328 328 328 327 326 325 325 325 326 323 322 321 321 320 320 320 321 321 322 321 321 322 322 321 321 321 321 323 322 319 317 315 314 313
330 329 329 330 330 329 328 329 329 328 328 328 327 326 326 325 324 324 323 321 321 320 321 321 321 322 322 322 322 322 322 321 321 320 319 319 322 321 318 316 314 314 312
332 329 329 330 330 329 328 328 328 328 327 327 326 325 325 324 323 323 322 322 321 321 321 322 322 321 322 321 321 322 321 321 320 319 318 316 320 320 317 315 314 313 312
332 331 329 330 329 328 328 327 326 326 326 326 326 325 324 323 321 321 321 320 320 320 321 321 322 322 322 321 321 322 321 321 319 318 319 317 318 318 316 315 314 313 312
332 331 330 330 329 328 327 327 326 325 325 324 324 324 323 322 321 319 319 320 320 320 321 321 321 322 322 322 322 321 322 320 318 317 317 317 316 315 315 314 313 312 311
332 330 330 330 330 328 327 326 326 325 325 324 323 323 322 322 321 318 318 319 319 319 320 321 321 321 322 322 322 322 321 320 318 317 315 315 315 314 314 313 312 311 311
332 331 330 329 329 329 328 327 326 325 325 324 323 322 322 321 322 321 319 318 318 318 320 321 321 322 322 323 323 322 321 321 318 318 315 314 315 315 314 313 312 309 309
332 331 330 329 328 329 328 327 326 325 325 324 324 322 322 322 323 323 321 319 320 320 320 321 321 322 323 323 323 323 322 322 319 318 319 316 314 314 314 313 310 306 303
332 332 331 330 330 329 328 327 327 326 326 325 324 324 322 323 323 324 324 323 321 322 322 322 322 323 323 323 322 321 322 322 320 321 319 317 317 316 313 311 310 307 303
332 332 331 330 330 329 328 328 327 326 326 325 325 324 323 322 323 324 324 324 322 322 322 322 323 323 323 323 323 321 320 320 318 318 317 317 316 314 314 312 311 309 305
331 332 332 331 330 330 329 328 327 327 326 325 325 324 323 322 322 323 324 325 324 323 323 323 323 323 323 323 323 323 323 321 318 318 318 316 316 315 313 314 313 310 307
330 331 332 332 331 330 330 329 329 328 327 327 326 325 323 323 322 324 325 325 325 324 324 323 323 323 324 323 323 323 323 325 322 318 316 316 315 315 315 311 309 307 309
329 330 331 331 331 330 330 330 329 328 328 327 327 327 325 323 323 324 324 325 325 325 324 324 324 324 324 324 321 322 322 322 323 324 317 314 315 314 314 313 311 310 310
328 329 330 331 331 331 330 329 329 329 329 330 329 328 326 325 323 322 322 323 324 324 324 324 324 324 324 324 324 323 322 322 321 318 321 322 317 314 313 313 312 310 309
326 328 329 330 330 331 329 329 329 329 330 330 329 328 326 326 325 325 324 324 324 324 324 324 324 324 324 324 324 324 323 322 321 319 319 320 321 321 319 317 315 316 314

GFSSE_925_thetae_141.txt.gz
Theta_e
339 339 336 336 336 338 339 340 339 338 337 337 337 336 335 334 333 330 330 333 330 329 330 332 329 328 327 327 328 327 327 327 328 328 329 329 328 328 328 327 327 329 331
339 340 336 337 337 337 338 339 338 337 337 337 336 335 334 334 334 331 329 333 331 329 328 328 328 327 328 327 327 326 326 326 325 326 326 326 328 329 330 330 329 329 329
339 339 338 336 337 338 337 336 336 336 336 335 334 333 332 333 332 330 330 335 331 329 327 327 327 328 327 326 326 326 325 324 324 326 327 327 328 328 328 329 329 330 330
339 339 339 335 336 334 332 333 334 334 334 332 331 331 331 330 332 330 328 330 329 329 327 327 328 327 327 326 327 326 323 324 325 327 328 328 328 328 329 329 330 330 330
338 339 339 335 335 334 334 334 334 333 331 331 330 329 330 330 330 329 328 329 328 327 328 327 327 327 326 327 326 323 326 327 327 327 329 329 330 329 329 331 329 327 326
338 339 337 335 333 334 334 335 333 331 330 329 329 329 328 328 328 328 328 329 327 328 327 327 327 326 326 326 323 324 326 325 326 329 330 331 331 331 329 327 327 325 324
338 338 338 335 333 333 333 334 332 330 329 328 328 328 327 327 328 327 328 329 326 327 327 327 327 326 325 323 323 323 323 324 326 328 330 330 330 329 328 326 324 323 322
338 337 337 335 333 333 333 334 332 331 329 328 327 327 327 327 327 327 327 327 326 327 326 327 326 322 320 319 319 318 320 324 326 328 329 329 328 328 326 323 321 320 318
336 335 336 336 335 334 334 333 331 331 331 329 326 326 326 326 327 327 326 327 326 326 325 325 321 319 319 319 319 318 321 325 327 327 328 328 328 327 324 322 320 318 317
335 334 335 335 336 336 334 333 330 331 331 329 326 325 326 325 325 326 326 326 326 326 324 321 321 320 319 319 319 318 322 324 324 325 325 326 326 324 322 320 318 316 315
335 334 333 334 333 333 334 333 331 330 330 328 326 324 324 326 325 324 326 325 324 322 321 321 321 320 320 320 319 320 322 323 322 323 323 324 324 322 320 318 316 315 314
335 333 332 332 332 332 332 332 332 332 330 329 327 325 325 325 325 325 325 324 323 320 320 320 320 320 322 323 321 322 322 322 322 321 321 322 323 322 319 317 315 315 314
335 333 331 331 331 331 329 330 330 330 329 328 327 326 325 325 326 325 324 324 322 320 321 321 320 322 323 323 323 323 323 322 321 321 319 319 322 321 319 316 315 314 313
335 333 330 330 331 330 329 329 329 328 328 327 328 327 326 325 325 325 324 323 323 322 323 323 323 323 323 323 323 323 323 322 321 320 319 316 320 320 318 316 314 313 312
334 334 331 330 330 330 329 328 328 328 328 328 327 326 326 325 324 324 324 323 323 322 323 323 323 323 323 323 323 323 323 322 320 319 320 316 316 317 316 316 315 313 312
333 334 333 330 330 330 329 328 327 327 327 327 327 326 325 324 323 322 322 323 322 322 322 323 323 323 323 323 323 323 323 322 321 318 319 319 317 317 316 315 315 314 313
333 334 333 332 331 330 329 328 327 327 326 326 325 325 325 324 322 320 320 321 321 321 322 322 323 322 323 323 323 323 323 323 321 318 317 318 318 316 315 315 315 314 313
332 333 333 332 332 330 330 329 328 326 326 325 324 324 324 324 322 321 319 320 321 321 321 322 322 322 323 323 323 323 323 323 322 319 318 317 316 317 316 315 313 313 312
332 333 333 333 331 331 330 329 328 327 326 325 325 323 323 323 322 322 320 319 319 320 320 321 322 323 323 324 323 323 322 322 322 321 319 318 318 317 316 316 315 313 310
332 332 333 333 332 331 331 329 328 328 326 326 325 324 323 322 322 323 323 321 320 321 321 321 322 323 323 324 323 323 322 322 322 322 320 319 318 317 316 315 315 313 311
332 332 332 333 332 331 332 331 329 328 328 327 325 324 324 322 323 324 324 324 323 322 323 323 323 324 324 324 323 322 322 322 322 322 320 319 319 318 316 316 314 313 311
332 333 332 332 333 332 332 331 330 329 328 327 326 325 324 324 323 324 325 325 324 323 323 323 324 324 324 324 323 322 323 322 321 321 321 320 319 318 317 315 314 313 313
332 333 333 333 332 332 332 331 331 330 330 328 327 326 325 324 324 323 324 325 325 325 324 324 324 324 325 324 323 323 324 325 324 322 320 320 319 318 318 317 316 314 312
331 332 333 333 332 332 332 331 331 330 330 329 328 327 326 325 324 323 324 324 325 326 326 325 324 324 324 325 323 322 324 324 324 324 321 318 318 318 317 317 316 315 313
329 332 333 333 333 332 332 332 332 331 331 330 330 329 328 326 325 324 324 324 326 326 326 326 325 325 325 325 325 323 321 322 322 323 323 322 322 318 318 318 317 315 315
328 330 332 333 333 333 332 332 332 332 331 331 331 330 330 328 327 325 324 324 324 325 326 326 325 326 325 325 325 324 323 322 322 322 320 319 320 320 321 321 318 318 318

GFSSE_925_thetae_144.txt.gz
Theta_e
340 336 335 337 338 338 339 339 339 338 338 337 337 335 334 333 330 332 330 328 331 333 330 328 328 328 328 327 326 327 326 326 327 326 329 331 331 331 331 329 328 329 331
339 337 336 336 338 338 338 338 337 336 336 335 335 335 334 334 330 330 331 329 329 329 328 328 329 328 327 326 326 325 325 326 326 326 327 328 329 330 330 327 329 331 332
340 336 337 337 337 338 338 337 337 336 335 334 333 332 333 333 330 333 332 329 327 328 328 328 327 327 327 326 326 326 324 325 327 327 328 327 329 330 330 331 331 331 331
340 339 337 336 337 336 335 334 334 334 333 332 331 330 331 331 329 330 331 328 327 328 328 327 328 327 325 326 325 325 325 326 327 328 327 328 329 329 331 331 328 327 327
339 339 337 336 335 332 333 334 334 332 331 331 330 329 329 330 329 328 328 327 327 328 327 327 327 325 326 326 325 326 326 326 328 329 329 330 330 331 330 327 326 324 324
339 338 336 335 334 334 334 334 332 330 330 329 329 328 329 328 327 328 328 326 327 327 327 326 326 325 326 324 324 324 325 327 328 329 329 329 330 330 328 326 325 323 323
338 339 336 334 334 334 334 334 331 330 329 328 328 327 328 328 327 328 328 326 326 326 327 326 326 325 323 322 322 322 324 325 327 330 329 329 329 328 325 324 322 321 321
338 338 336 334 333 333 334 334 331 329 328 327 327 327 327 327 327 327 328 326 325 326 326 325 324 320 318 318 317 321 324 327 326 328 328 328 327 326 324 322 321 319 318
337 337 334 334 334 333 333 333 331 330 328 327 326 326 326 326 326 326 326 326 325 325 326 324 319 318 318 318 317 323 325 325 325 327 327 328 326 325 323 321 319 317 316
336 336 335 334 334 333 333 333 331 331 329 328 325 326 325 325 326 325 325 325 325 324 323 320 319 319 319 318 318 322 323 324 324 322 323 326 325 323 321 319 317 316 316
335 335 335 334 333 333 333 332 330 331 330 328 325 325 324 324 324 324 324 325 324 324 322 319 319 319 319 318 319 322 322 322 322 323 321 324 324 322 320 317 316 315 315
335 334 334 335 334 332 331 331 330 331 328 327 325 324 325 324 323 324 325 325 323 321 319 320 320 319 322 322 321 323 322 322 321 321 319 322 323 321 319 316 316 314 314
335 334 333 333 332 333 332 332 331 330 328 327 326 323 325 325 324 324 324 324 323 320 319 320 320 320 323 323 322 323 321 321 321 321 319 318 322 320 318 316 315 314 313
335 334 333 332 331 332 331 330 331 330 329 327 326 324 325 325 325 324 323 322 322 320 322 322 322 323 323 323 323 323 322 322 321 320 319 317 317 318 318 317 316 314 312
335 335 332 331 331 331 330 329 330 330 329 327 326 326 326 325 324 324 324 321 323 322 323 323 323 323 323 323 322 322 322 322 320 319 319 317 317 318 318 317 316 314 313
335 335 334 330 330 331 330 329 329 328 328 328 327 327 326 326 325 324 324 323 323 323 322 323 323 323 323 323 323 322 322 322 321 319 318 319 318 317 317 317 317 315 314
334 334 334 331 330 330 330 329 328 328 328 327 328 327 325 325 325 323 323 323 322 322 322 322 323 322 323 323 323 323 322 322 322 321 318 317 318 317 316 315 317 316 315
334 333 334 333 331 330 330 329 328 327 327 327 327 326 326 324 324 322 321 321 321 321 321 322 322 322 322 323 323 323 322 322 322 322 320 318 317 316 317 316 315 314 315
333 332 334 333 332 331 330 329 328 328 326 326 325 325 325 325 324 323 320 320 320 321 321 321 322 322 322 322 323 323 322 322 321 322 321 320 319 318 317 316 316 316 314
333 332 333 333 332 332 331 330 329 328 327 326 325 324 324 324 324 323 321 319 319 320 320 320 321 322 322 323 323 322 322 322 321 321 322 322 320 319 318 317 316 316 315
333 332 332 333 333 332 331 330 329 328 327 326 325 325 324 323 322 322 322 321 320 319 319 320 320 322 323 323 323 322 322 321 322 322 321 322 321 319 319 318 317 316 315
332 333 333 333 333 332 331 331 330 329 328 327 326 325 325 323 322 321 322 324 324 320 321 322 322 323 323 324 323 322 321 321 321 321 321 322 321 320 319 318 318 317 315
331 332 332 332 333 332 331 332 331 330 329 328 327 326 325 324 323 322 323 323 324 324 322 322 323 323 324 324 324 323 322 320 321 323 322 322 321 320 320 318 318 318 316
331 332 332 332 332 333 332 332 331 330 330 329 328 327 326 325 324 323 323 324 324 325 324 323 322 323 324 324 324 323 322 323 320 318 321 321 320 320 320 320 319 318 317
328 331 332 333 332 332 332 332 331 330 330 330 328 327 326 325 325 324 323 323 324 325 325 324 324 323 324 323 324 323 322 322 321 322 322 320 320 320 319 319 319 318 317
324 329 331 332 333 332 332 332 331 331 330 330 329 328 327 326 326 325 324 323 323 323 324 325 325 325 324 324 324 324 323 321 320 320 320 319 319 319 320 320 320 320 319

GFSSE_925_thetae_147.txt.gz
Theta_e
337 336 336 338 339 340 340 339 338 338 337 336 336 335 333 331 331 328 329 332 330 329 329 329 329 328 326 327 326 327 326 325 325 328 331 332 331 331 330 327 330 330 332
336 335 337 338 338 339 339 337 336 336 335 334 334 334 333 331 330 329 329 329 330 328 330 329 327 327 326 325 326 327 326 325 326 327 327 330 331 332 331 332 332 332 332
336 336 336 338 338 337 337 336 336 335 334 332 331 332 332 331 332 329 329 328 328 328 329 328 327 326 325 327 327 326 326 326 327 327 327 328 329 332 332 331 331 331 330
336 336 336 337 337 337 337 336 335 334 333 331 330 330 329 329 333 330 329 328 328 329 327 328 325 326 326 327 326 325 327 327 327 328 328 329 330 331 330 330 328 325 325
337 336 336 337 336 334 332 332 333 331 331 330 329 329 330 328 329 328 327 327 328 326 328 325 326 326 326 327 326 326 327 328 330 329 330 330 330 330 328 326 324 324 323
338 338 335 336 333 332 333 333 332 331 331 329 329 328 329 327 328 328 326 327 326 327 326 325 326 326 325 324 325 325 325 327 330 329 329 329 328 327 326 324 323 322 321
338 338 335 335 333 333 334 333 330 330 330 328 328 328 328 327 328 328 326 326 326 326 325 325 326 324 321 321 323 324 325 327 328 328 328 327 326 326 325 323 321 319 319
337 337 335 334 333 334 334 332 329 329 328 328 327 327 327 326 327 328 326 324 326 325 325 326 321 318 317 317 321 325 325 325 326 326 327 327 326 325 323 321 318 318 317
336 337 335 333 333 334 334 332 330 328 327 325 326 326 326 326 326 327 326 324 325 325 326 320 318 317 317 316 323 324 324 324 325 325 326 326 325 324 321 319 317 317 316
337 336 333 333 333 333 333 333 330 328 327 326 324 325 325 326 325 325 325 324 324 324 322 318 318 317 317 317 323 322 323 323 322 322 323 325 323 322 320 318 316 316 316
337 335 334 332 332 333 333 333 331 330 328 326 326 324 324 325 325 324 324 325 324 323 320 319 318 318 318 318 321 322 322 322 322 322 321 323 323 322 319 318 316 315 315
335 335 335 333 331 332 333 332 331 331 329 327 325 324 322 323 324 324 324 324 325 324 321 320 319 318 320 320 322 322 321 321 321 320 318 322 322 321 319 318 316 315 314
335 334 335 334 332 332 332 331 330 330 330 328 326 323 323 323 323 324 324 324 324 322 319 319 319 320 322 323 322 322 320 321 321 320 319 317 320 321 319 317 316 315 314
335 334 334 334 332 332 330 330 330 330 329 326 325 324 324 325 324 324 323 324 324 320 319 319 319 320 323 323 322 322 322 321 320 319 319 316 317 320 319 317 316 315 313
335 335 334 333 332 333 331 332 331 329 329 328 326 324 324 325 324 324 323 323 322 320 319 321 322 322 323 321 322 322 322 321 320 318 319 317 316 318 319 318 316 315 314
335 335 334 333 332 331 332 331 329 329 329 328 326 325 323 325 325 324 323 323 319 320 320 323 322 323 322 322 322 321 322 322 321 319 318 319 318 316 317 319 318 316 315
335 334 334 333 331 331 331 330 329 329 329 328 328 325 325 325 324 323 324 324 322 322 322 322 322 322 322 323 323 322 322 322 322 321 320 317 317 318 316 316 318 318 317
334 334 334 334 332 330 330 330 329 328 329 328 328 327 326 326 325 325 323 324 323 322 322 321 322 322 322 322 323 322 323 322 322 322 321 320 318 317 317 317 316 316 317
334 334 334 334 333 330 330 330 329 328 328 328 327 327 327 327 325 325 324 322 322 322 321 321 322 322 322 322 322 322 322 321 321 321 321 321 321 319 318 317 316 316 316
334 334 334 333 333 331 330 330 329 328 327 327 327 327 327 326 325 324 323 321 320 320 321 321 321 321 321 321 322 323 323 321 321 321 321 321 321 321 320 318 317 317 316
333 333 333 333 333 331 330 329 329 328 328 327 326 326 326 326 325 324 323 322 320 319 320 320 320 321 321 322 323 322 321 321 321 321 321 321 321 321 321 320 319 318 317
332 333 332 332 332 332 331 330 329 328 328 327 327 326 325 325 324 324 323 322 321 319 319 319 320 320 321 322 322 322 320 320 321 321 321 321 321 321 322 321 319 319 318
330 332 332 332 332 332 332 330 329 329 328 327 326 326 326 325 324 323 322 322 321 320 320 319 319 319 320 321 323 322 318 318 318 322 321 321 321 321 321 320 320 319 318
328 331 332 331 331 332 332 331 330 329 328 327 327 326 325 325 325 323 322 321 321 322 321 320 319 320 322 322 323 323 322 321 318 318 321 322 322 321 321 320 320 320 319
323 329 331 331 331 332 331 331 330 330 329 328 328 327 326 325 325 324 323 322 321 321 323 323 322 321 322 322 322 323 322 322 321 321 321 320 320 320 320 320 320 320 320
319 324 329 331 331 331 332 331 331 330 330 329 328 327 326 325 325 324 324 322 322 322 323 323 324 323 322 322 322 323 323 322 321 320 319 318 318 319 320 319 319 319 320